TimeMST,TemperatureF,Dew PointF,Humidity,Sea Level PressureIn,VisibilityMPH,Wind Direction,Wind SpeedMPH,Gust SpeedMPH,PrecipitationIn,Events,Conditions,WindDirDegrees,DateUTC
12:48 AM,26.6,21.2,80,30.04,1.5,WNW,8.1,-,0.00,Snow,Light Snow,290,2013-02-18 07:48:00
12:53 AM,26.1,23.0,88,30.17,1.5,West,6.9,-,0.00,Snow,Light Snow,280,2013-02-18 07:53:00
1:03 AM,26.6,23.0,86,30.05,1.5,WNW,3.5,-,0.00,Snow,Light Snow,290,2013-02-18 08:03:00
1:18 AM,26.6,23.0,86,30.05,1.5,Calm,Calm,-,0.00,Snow,Light Snow,0,2013-02-18 08:18:00
1:49 AM,24.8,21.2,86,30.05,2.5,WSW,3.5,-,0.01,Snow,Light Snow,250,2013-02-18 08:49:00
1:53 AM,24.1,21.0,88,30.19,2.5,WSW,4.6,-,0.01,Snow,Light Snow,250,2013-02-18 08:53:00
2:01 AM,24.8,21.2,86,30.06,2.5,WSW,4.6,-,0.00,Snow,Light Snow,250,2013-02-18 09:01:00
2:12 AM,24.8,21.2,86,30.06,2.5,WSW,4.6,-,0.00,Snow,Light Snow,250,2013-02-18 09:12:00
2:38 AM,24.8,21.2,86,30.06,3.0,WSW,5.8,-,0.00,Snow,Light Snow,240,2013-02-18 09:38:00
2:46 AM,24.8,21.2,86,30.06,3.0,WSW,4.6,-,0.00,Snow,Light Snow,240,2013-02-18 09:46:00
2:53 AM,25.0,21.9,88,30.19,2.0,SW,4.6,-,0.00,Snow,Light Snow,230,2013-02-18 09:53:00
3:17 AM,24.8,21.2,86,30.06,2.0,SSW,4.6,-,0.00,Snow,Light Snow,200,2013-02-18 10:17:00
3:25 AM,24.8,21.2,86,30.06,1.5,SSW,4.6,-,0.00,Snow,Light Snow,210,2013-02-18 10:25:00
3:41 AM,24.8,21.2,86,30.06,1.5,SW,4.6,-,0.01,Snow,Light Snow,220,2013-02-18 10:41:00
3:53 AM,25.0,21.9,88,30.19,2.0,SW,4.6,-,0.01,Snow,Light Snow,220,2013-02-18 10:53:00
4:53 AM,24.8,21.2,86,30.06,2.5,SSW,5.8,-,N/A,Snow,Light Snow,200,2013-02-18 11:53:00
5:14 AM,24.8,21.2,86,30.06,5.0,SSW,5.8,-,0.00,Snow,Light Snow,200,2013-02-18 12:14:00
5:53 AM,25.0,21.9,88,30.19,6.0,South,3.5,-,0.00,,Overcast,180,2013-02-18 12:53:00
6:53 AM,25.0,21.0,85,30.20,10.0,South,5.8,-,N/A,,Overcast,180,2013-02-18 13:53:00
7:19 AM,23.0,19.4,86,30.05,10.0,South,5.8,-,N/A,,Overcast,180,2013-02-18 14:19:00
7:53 AM,19.9,17.1,89,30.22,9.0,SSW,5.8,-,N/A,,Overcast,200,2013-02-18 14:53:00
8:53 AM,21.9,19.0,89,30.20,10.0,Calm,Calm,-,N/A,,Mostly Cloudy,0,2013-02-18 15:53:00
9:53 AM,24.1,19.0,81,30.20,10.0,SE,3.5,-,N/A,,Clear,130,2013-02-18 16:53:00
10:53 AM,25.0,19.0,78,30.19,10.0,South,4.6,-,N/A,,Clear,180,2013-02-18 17:53:00
11:53 AM,27.0,18.0,69,30.18,10.0,South,6.9,-,N/A,,Clear,170,2013-02-18 18:53:00
12:53 PM,28.9,19.0,67,30.15,10.0,SSE,6.9,-,N/A,,Clear,150,2013-02-18 19:53:00
1:53 PM,30.9,19.9,64,30.12,10.0,East,6.9,-,N/A,,Clear,100,2013-02-18 20:53:00
2:53 PM,32.0,21.0,64,30.10,10.0,East,6.9,-,N/A,,Clear,100,2013-02-18 21:53:00
3:53 PM,30.9,21.0,67,30.08,10.0,ESE,6.9,-,N/A,,Clear,110,2013-02-18 22:53:00
4:53 PM,28.9,18.0,64,30.06,10.0,ESE,9.2,-,N/A,,Clear,110,2013-02-18 23:53:00
5:53 PM,24.1,14.0,65,30.06,10.0,ESE,10.4,-,N/A,,Clear,110,2013-02-19 00:53:00
6:53 PM,25.0,14.0,63,30.04,10.0,ESE,10.4,-,N/A,,Clear,110,2013-02-19 01:53:00
7:53 PM,23.0,12.9,65,30.04,10.0,ESE,9.2,-,N/A,,Clear,110,2013-02-19 02:53:00
8:53 PM,21.9,12.9,68,30.03,10.0,ESE,10.4,-,N/A,,Clear,120,2013-02-19 03:53:00
9:53 PM,21.0,12.0,68,30.02,10.0,ESE,10.4,-,N/A,,Clear,110,2013-02-19 04:53:00
10:53 PM,21.0,12.0,68,30.01,10.0,SE,5.8,-,N/A,,Clear,140,2013-02-19 05:53:00
11:53 PM,21.0,12.0,68,29.99,10.0,East,5.8,-,N/A,,Clear,100,2013-02-19 06:53:00